TimeCDT,TemperatureF,Dew PointF,Humidity,Sea Level PressureIn,VisibilityMPH,Wind Direction,Wind SpeedMPH,Gust SpeedMPH,PrecipitationIn,Events,Conditions,WindDirDegrees,DateUTC
12:53 AM,79.0,75.0,88,30.03,10.0,Calm,Calm,-,N/A,,Clear,0,2013-06-27 05:53:00
1:53 AM,78.1,75.0,90,30.01,10.0,Calm,Calm,-,N/A,,Partly Cloudy,0,2013-06-27 06:53:00
2:53 AM,78.1,75.0,90,30.01,10.0,Calm,Calm,-,N/A,,Clear,0,2013-06-27 07:53:00
3:25 AM,78.8,75.2,89,30.00,10.0,Calm,Calm,-,N/A,,Partly Cloudy,0,2013-06-27 08:25:00
3:53 AM,75.9,73.9,94,30.01,10.0,Calm,Calm,-,N/A,,Partly Cloudy,0,2013-06-27 08:53:00
4:53 AM,75.9,75.0,97,30.02,10.0,Calm,Calm,-,N/A,,Partly Cloudy,0,2013-06-27 09:53:00
5:53 AM,75.9,75.0,97,30.03,10.0,Calm,Calm,-,N/A,,Partly Cloudy,0,2013-06-27 10:53:00
6:53 AM,78.1,75.9,93,30.03,10.0,Calm,Calm,-,N/A,,Partly Cloudy,0,2013-06-27 11:53:00
7:53 AM,82.0,77.0,85,30.04,10.0,West,3.5,-,N/A,,Partly Cloudy,280,2013-06-27 12:53:00
8:53 AM,84.9,77.0,77,30.03,10.0,Variable,4.6,-,N/A,,Scattered Clouds,0,2013-06-27 13:53:00
9:53 AM,86.0,75.0,70,30.02,10.0,West,6.9,-,N/A,,Partly Cloudy,280,2013-06-27 14:53:00
10:53 AM,89.1,75.0,63,30.03,10.0,NW,10.4,-,N/A,,Scattered Clouds,310,2013-06-27 15:53:00
11:53 AM,90.0,75.0,61,30.02,10.0,NNW,6.9,-,N/A,,Mostly Cloudy,340,2013-06-27 16:53:00
12:53 PM,90.0,73.0,57,30.01,10.0,West,5.8,-,N/A,,Scattered Clouds,280,2013-06-27 17:53:00
1:53 PM,91.0,73.9,57,29.99,10.0,WNW,5.8,-,N/A,,Mostly Cloudy,300,2013-06-27 18:53:00
2:53 PM,91.0,78.1,66,29.97,10.0,SE,9.2,-,N/A,,Mostly Cloudy,140,2013-06-27 19:53:00
3:53 PM,89.1,78.1,70,29.95,10.0,South,8.1,-,N/A,,Scattered Clouds,170,2013-06-27 20:53:00
4:53 PM,90.0,78.1,68,29.94,10.0,South,4.6,-,N/A,,Scattered Clouds,170,2013-06-27 21:53:00
5:53 PM,90.0,77.0,65,29.93,10.0,Variable,4.6,-,N/A,,Partly Cloudy,0,2013-06-27 22:53:00
6:53 PM,88.0,77.0,70,29.93,10.0,SSW,6.9,-,N/A,,Clear,210,2013-06-27 23:53:00
7:53 PM,86.0,77.0,74,29.94,10.0,Variable,3.5,-,N/A,,Clear,0,2013-06-28 00:53:00
8:53 PM,84.0,75.9,76,29.94,10.0,SW,3.5,-,N/A,,Partly Cloudy,230,2013-06-28 01:53:00
9:53 PM,82.9,77.0,82,29.96,10.0,SW,3.5,-,N/A,,Clear,230,2013-06-28 02:53:00
10:53 PM,82.0,77.0,85,29.95,10.0,SW,3.5,-,N/A,,Clear,230,2013-06-28 03:53:00
11:53 PM,82.0,78.1,88,29.94,10.0,WSW,3.5,-,N/A,,Clear,240,2013-06-28 04:53:00